Wind_Speed
10 13 15 14 14 12 12 12 10 11 13 11 10 11 14 17 17 16 15 16 17 18 18 18 20 21 21 20 19 18 16 16 16 15 17 15 10 6 7 9 13 15 15
11 12 16 16 16 15 14 14 14 11 13 13 12 13 12 15 15 18 16 16 16 15 16 17 18 18 17 17 17 17 16 14 12 11 11 13 11 8 9 11 13 14 14
19 15 16 19 18 17 17 17 17 16 14 15 14 14 13 13 13 15 15 11 13 15 14 15 16 16 17 18 17 15 13 11 8 9 11 13 13 11 11 13 12 13 16
19 21 18 20 21 20 20 21 22 20 19 18 17 17 18 16 16 15 14 14 14 14 12 13 12 12 12 13 14 15 13 11 11 11 12 14 13 11 10 10 12 13 16
22 24 20 20 22 21 21 22 21 21 22 22 21 21 21 19 18 18 19 17 16 15 14 15 14 12 13 13 13 13 14 14 15 15 15 15 14 13 13 13 14 16 15
28 30 24 22 20 20 21 23 21 21 21 22 20 20 22 20 18 21 21 20 18 17 21 19 16 15 14 16 16 17 17 17 18 17 16 15 16 16 16 15 15 14 14
33 32 28 28 25 24 24 24 26 24 22 24 25 25 24 21 23 22 23 23 21 20 20 20 23 22 23 23 19 17 18 17 18 19 17 18 18 17 16 16 17 19 18
28 30 38 34 30 27 31 25 20 20 21 22 26 28 32 28 27 28 25 23 22 21 20 20 20 20 22 19 22 20 19 21 20 20 20 19 19 18 18 18 19 23 23
26 25 24 27 26 14 14 19 22 21 24 28 32 34 34 31 33 33 30 28 24 21 21 20 19 19 19 19 20 19 20 21 21 21 21 20 20 20 21 23 21 23 24
32 28 29 24 26 21 19 19 19 17 15 23 26 29 28 30 32 32 38 37 33 34 29 20 21 21 21 20 19 18 19 21 22 22 21 20 21 22 20 21 24 26 24
32 33 35 25 23 19 12 16 14 13 11 8 4 8 13 20 28 31 32 36 34 33 30 23 23 21 22 20 16 16 18 20 23 21 21 21 22 23 25 27 26 24 22
22 31 20 21 13 2 11 16 15 14 10 7 8 11 10 13 13 17 21 17 18 23 22 21 21 21 21 24 23 26 34 31 31 24 26 25 24 26 29 29 26 25 24
4 13 7 6 16 13 21 18 18 16 14 13 13 11 10 9 10 16 17 21 24 19 20 21 21 25 24 25 30 28 24 27 26 27 28 26 26 26 28 28 26 26 27
15 11 9 10 11 13 15 20 20 15 14 14 15 15 14 14 13 14 15 17 19 21 21 22 22 23 19 20 21 23 22 22 22 23 24 23 24 24 25 25 26 27 28
17 18 14 14 14 17 17 18 19 21 18 16 15 17 18 19 20 20 20 20 17 21 21 21 21 20 22 22 22 23 23 23 22 21 21 21 23 24 25 26 26 27 28
14 13 11 14 14 15 18 19 21 17 20 23 23 20 23 28 29 22 21 22 22 21 20 20 22 24 24 23 22 22 21 21 21 21 21 23 24 25 26 27 28 29 30
9 11 12 14 17 17 19 19 16 17 21 22 21 25 22 22 30 32 25 21 20 21 22 23 23 23 22 21 21 21 21 21 21 21 22 23 25 26 27 27 29 30 31
10 10 11 14 17 19 20 19 23 19 22 24 22 25 25 25 26 32 31 21 22 18 19 20 20 20 19 19 19 20 21 22 22 22 23 25 26 27 28 29 30 31 31
10 11 12 12 11 11 12 12 14 15 15 18 16 13 12 10 12 16 29 29 20 14 17 17 18 19 19 19 20 21 21 23 23 24 26 26 27 28 29 30 30 31 32
8 10 12 9 9 10 9 10 12 14 16 17 17 15 14 12 11 10 10 11 10 11 16 17 19 20 21 21 21 21 22 24 25 25 26 27 27 28 28 29 30 31 32
13 17 20 19 18 13 14 11 13 13 11 13 12 12 11 10 10 10 11 13 15 19 23 24 25 22 21 21 22 23 24 26 26 27 27 27 27 27 27 28 29 30 32
13 13 15 16 15 16 15 16 16 16 16 17 17 16 16 17 16 15 17 18 21 22 22 22 21 22 23 26 27 27 24 24 24 25 26 26 26 27 27 29 30 32 34
14 15 15 16 18 20 19 18 19 19 17 16 16 16 17 18 17 17 18 19 20 21 21 21 21 21 20 21 22 23 24 24 25 25 24 25 25 26 28 30 31 33 33
13 13 13 13 14 15 17 19 19 19 18 17 16 16 17 17 16 17 17 18 19 20 19 19 20 19 20 21 22 23 23 23 23 23 24 26 27 28 29 30 31 32 31
16 17 17 17 17 17 18 19 19 20 19 18 17 17 19 20 20 19 19 18 19 18 17 17 18 19 20 21 21 22 22 22 21 23 25 26 26 27 27 28 29 29 28
23 21 21 24 21 22 24 26 25 23 24 24 23 22 22 22 22 22 22 21 20 20 20 21 21 20 18 17 18 19 20 19 20 21 21 21 22 25 27 28 29 29 28
Wind_Direction
210 214 222 227 219 218 230 228 225 225 220 220 220 225 223 226 223 231 234 229 227 230 235 245 254 259 260 265 274 284 289 289 293 304 302 304 310 320 322 317 315 305 314
233 228 224 227 230 229 226 227 229 225 226 228 241 217 223 227 224 225 227 236 239 241 244 246 250 259 264 268 278 284 286 284 291 291 296 308 315 321 294 305 316 306 309
227 241 236 230 229 224 230 232 228 233 235 232 222 225 233 228 222 230 234 236 232 231 242 241 248 256 267 277 277 274 273 276 282 279 279 288 298 297 302 306 311 312 317
230 232 238 234 229 225 227 231 232 238 239 241 237 231 231 236 234 233 234 235 235 239 248 253 254 257 265 254 261 265 271 276 276 276 278 281 287 296 296 297 299 303 306
231 231 239 239 229 228 229 237 234 237 242 242 244 242 238 240 242 237 242 246 242 237 247 249 249 255 256 257 262 266 269 266 268 270 273 278 285 294 298 303 303 301 297
233 234 230 233 222 223 222 230 225 229 235 244 242 246 246 245 246 239 237 242 239 235 240 245 248 244 252 258 264 264 262 265 266 266 268 274 282 290 295 300 298 293 296
240 236 233 239 227 225 229 237 244 244 249 241 248 250 248 239 239 242 241 239 245 243 241 248 249 252 256 262 267 262 267 264 266 268 275 281 286 290 292 291 291 287 287
232 233 238 234 236 251 233 243 260 239 252 262 262 253 250 249 254 238 240 237 239 241 245 251 251 253 253 252 254 257 260 263 267 273 278 282 283 283 285 290 294 295 298
212 218 226 226 226 224 225 240 244 254 271 275 268 255 251 253 249 230 235 241 240 242 244 243 248 254 254 254 255 258 260 264 267 273 276 277 278 280 283 288 294 303 301
247 233 211 204 216 228 229 236 249 269 283 274 268 245 240 245 238 232 231 237 247 240 236 239 250 248 248 252 255 263 275 279 279 275 273 274 278 283 286 296 301 300 300
221 232 232 230 231 242 207 241 252 255 275 284 305 294 242 244 249 239 236 248 255 240 233 234 236 239 246 250 258 279 288 289 281 274 273 272 278 284 294 297 299 296 297
219 219 233 236 226 218 230 251 238 255 273 258 238 249 250 238 234 229 246 229 206 217 224 232 233 233 235 244 260 275 278 278 280 275 279 278 281 290 295 297 297 299 300
263 200 248 258 261 251 246 244 237 244 251 257 253 256 256 250 224 224 235 232 244 253 251 247 244 249 257 274 258 272 267 263 264 266 276 277 282 286 290 292 294 295 298
228 244 260 261 246 233 247 242 245 245 246 254 254 252 252 252 245 238 242 246 252 255 247 239 248 263 262 258 258 259 260 262 262 264 266 271 277 280 283 287 293 296 298
231 236 243 237 241 246 251 259 255 250 246 257 257 257 254 248 245 249 246 248 239 242 245 248 254 255 262 266 268 266 264 262 262 265 270 274 277 280 283 286 289 290 291
244 241 230 234 241 246 245 247 259 263 264 258 260 265 257 255 249 240 241 240 241 241 245 249 254 261 267 266 265 265 263 263 265 269 273 277 280 282 284 286 288 290 292
230 222 224 235 230 234 250 250 251 251 249 257 242 239 247 283 263 236 220 228 239 250 254 256 257 258 259 259 260 259 259 264 267 272 277 280 283 285 288 290 292 293 294
227 231 240 242 245 251 251 253 243 239 247 245 237 251 256 265 273 260 243 221 225 246 250 252 254 257 257 257 257 261 265 268 272 276 279 281 284 286 289 291 293 295 296
234 229 220 227 240 247 251 254 260 253 246 247 254 261 271 279 279 276 260 234 224 233 251 247 259 261 259 259 262 266 270 274 276 279 281 283 287 290 292 294 297 300 302
228 207 194 217 252 239 239 242 245 244 245 247 248 249 248 249 254 262 250 247 253 255 258 261 257 259 261 265 268 272 275 278 279 283 287 289 292 294 295 297 300 302 305
256 233 230 254 260 261 249 266 260 250 258 256 252 248 248 247 260 266 260 250 245 247 253 257 261 266 275 279 279 279 282 283 286 286 288 292 293 295 298 301 304 307 309
255 259 257 260 250 258 254 250 261 257 251 252 255 255 257 256 257 254 252 251 254 256 262 267 268 269 271 272 272 271 275 280 283 286 289 293 297 301 304 307 308 310 311
256 257 258 260 263 267 268 266 264 262 258 252 253 256 258 260 263 261 256 257 257 255 254 257 260 263 266 271 275 278 282 287 291 295 298 300 302 303 304 306 308 310 311
259 262 263 265 265 266 267 266 264 263 264 262 258 256 255 255 253 254 255 255 257 260 263 264 267 270 272 275 278 283 287 290 294 296 297 298 301 303 305 306 308 308 309
251 258 261 263 263 261 260 260 260 261 259 259 259 256 256 258 260 259 259 261 263 267 270 272 275 276 275 276 278 281 285 290 295 296 297 301 304 306 308 309 309 308 307
260 254 265 257 263 259 258 258 256 255 256 258 261 260 257 260 264 265 265 264 264 262 270 271 272 275 274 278 281 282 286 292 292 286 293 303 311 313 313 313 312 310 306
Height
3204 3207 3209 3212 3213 3216 3218 3220 3221 3222 3223 3224 3225 3226 3228 3229 3230 3232 3233 3233 3233 3234 3235 3236 3237 3238 3238 3238 3237 3237 3237 3237 3236 3234 3233 3232 3231 3230 3229 3229 3228 3226 3224
3202 3203 3206 3207 3210 3213 3215 3218 3219 3220 3222 3222 3222 3223 3226 3227 3228 3229 3229 3230 3231 3232 3233 3233 3234 3234 3234 3234 3234 3233 3233 3233 3233 3232 3231 3230 3230 3230 3230 3228 3226 3224 3222
3199 3200 3202 3204 3206 3209 3211 3213 3216 3217 3219 3220 3220 3221 3223 3224 3225 3227 3227 3227 3227 3229 3230 3231 3231 3232 3231 3231 3231 3231 3231 3231 3230 3230 3230 3229 3228 3228 3228 3227 3225 3223 3221
3195 3197 3199 3200 3202 3204 3206 3209 3211 3212 3214 3216 3217 3218 3219 3221 3222 3222 3224 3224 3225 3226 3228 3229 3230 3229 3229 3229 3230 3229 3229 3230 3229 3228 3227 3226 3226 3226 3225 3225 3223 3222 3219
3191 3193 3195 3196 3197 3200 3203 3206 3207 3209 3210 3211 3213 3215 3215 3217 3218 3219 3220 3221 3222 3223 3225 3226 3227 3227 3227 3227 3227 3227 3227 3226 3226 3225 3225 3225 3224 3223 3223 3223 3222 3219 3217
3186 3188 3190 3193 3194 3194 3197 3200 3203 3204 3206 3208 3209 3210 3211 3213 3215 3215 3215 3216 3218 3219 3221 3222 3223 3223 3223 3224 3224 3223 3223 3223 3222 3221 3221 3220 3220 3221 3220 3220 3217 3216 3215
3180 3181 3185 3188 3189 3190 3193 3196 3198 3200 3200 3202 3204 3206 3206 3207 3208 3209 3210 3211 3212 3214 3217 3218 3219 3219 3219 3220 3220 3220 3220 3219 3219 3219 3219 3219 3218 3217 3217 3215 3213 3210 3210
3170 3173 3178 3180 3184 3184 3187 3188 3191 3193 3194 3194 3196 3197 3197 3198 3201 3203 3204 3206 3208 3209 3211 3213 3213 3214 3214 3214 3215 3216 3216 3215 3216 3216 3216 3215 3214 3213 3212 3211 3209 3206 3204
3159 3168 3170 3171 3177 3178 3179 3181 3184 3186 3185 3184 3186 3188 3190 3191 3192 3195 3197 3199 3201 3203 3205 3207 3208 3209 3209 3210 3211 3211 3211 3210 3210 3210 3210 3209 3208 3208 3207 3207 3205 3202 3199
3148 3158 3165 3166 3167 3169 3172 3175 3178 3177 3177 3176 3176 3177 3181 3183 3183 3185 3187 3193 3194 3195 3198 3200 3203 3204 3205 3205 3205 3206 3205 3204 3204 3204 3203 3203 3203 3202 3202 3201 3200 3197 3195
3147 3152 3153 3157 3160 3160 3163 3168 3170 3172 3173 3172 3173 3174 3173 3176 3177 3178 3184 3185 3184 3186 3190 3193 3196 3198 3199 3199 3199 3198 3198 3198 3197 3197 3197 3197 3197 3196 3195 3195 3192 3191 3189
3137 3141 3141 3147 3151 3160 3161 3164 3166 3168 3169 3171 3172 3172 3173 3173 3173 3176 3179 3180 3182 3183 3186 3188 3191 3193 3194 3195 3195 3194 3193 3194 3193 3193 3192 3191 3190 3189 3188 3188 3186 3184 3182
3137 3139 3143 3149 3154 3156 3157 3160 3163 3164 3166 3168 3170 3170 3170 3170 3172 3174 3175 3177 3179 3181 3183 3185 3186 3189 3189 3188 3189 3190 3189 3188 3187 3187 3186 3186 3185 3184 3182 3181 3180 3178 3176
3140 3143 3146 3148 3150 3151 3153 3155 3158 3161 3163 3164 3165 3167 3166 3166 3167 3170 3172 3172 3173 3176 3178 3180 3181 3182 3181 3183 3183 3184 3183 3183 3181 3180 3181 3180 3179 3177 3177 3175 3173 3171 3169
3138 3140 3143 3145 3146 3149 3151 3152 3154 3156 3159 3161 3161 3161 3161 3162 3163 3165 3166 3168 3170 3171 3174 3175 3176 3176 3177 3176 3178 3177 3177 3177 3176 3174 3174 3173 3173 3173 3171 3170 3168 3166 3165
3133 3135 3136 3140 3144 3146 3146 3149 3151 3152 3153 3153 3155 3157 3155 3156 3157 3159 3161 3164 3165 3166 3167 3169 3170 3169 3171 3170 3170 3172 3172 3171 3170 3168 3168 3168 3167 3167 3166 3163 3162 3159 3157
3129 3132 3135 3136 3138 3140 3141 3143 3143 3147 3148 3149 3148 3150 3151 3152 3152 3151 3152 3156 3159 3162 3162 3162 3163 3163 3163 3164 3166 3165 3163 3165 3163 3161 3162 3161 3160 3160 3159 3157 3155 3152 3149
3128 3129 3130 3132 3132 3134 3137 3138 3140 3141 3142 3143 3143 3144 3144 3146 3146 3147 3146 3146 3150 3154 3156 3156 3156 3156 3156 3158 3157 3158 3157 3158 3157 3155 3155 3155 3153 3151 3150 3149 3148 3145 3141
3126 3127 3128 3128 3129 3131 3132 3134 3135 3136 3136 3137 3138 3137 3139 3138 3139 3142 3141 3138 3142 3145 3148 3149 3150 3152 3152 3152 3152 3152 3152 3152 3152 3149 3149 3148 3147 3145 3142 3140 3138 3137 3133
3123 3124 3125 3125 3127 3127 3129 3129 3131 3132 3132 3133 3133 3134 3135 3136 3137 3137 3137 3138 3139 3143 3147 3147 3146 3147 3149 3148 3147 3146 3145 3146 3145 3142 3143 3140 3138 3137 3135 3132 3130 3128 3126
3119 3120 3122 3123 3124 3125 3127 3127 3128 3129 3130 3129 3128 3130 3130 3130 3131 3130 3133 3135 3136 3138 3141 3141 3142 3142 3141 3142 3142 3142 3141 3140 3138 3138 3136 3132 3131 3130 3127 3125 3123 3120 3117
3114 3115 3116 3117 3118 3119 3121 3122 3123 3123 3125 3125 3126 3126 3126 3125 3124 3126 3130 3132 3133 3134 3135 3134 3134 3136 3136 3137 3137 3136 3134 3133 3132 3131 3128 3125 3124 3122 3120 3118 3115 3112 3108
3111 3112 3112 3112 3113 3113 3114 3116 3117 3118 3120 3120 3120 3119 3120 3121 3122 3123 3125 3125 3126 3127 3127 3128 3128 3128 3128 3128 3128 3128 3126 3126 3125 3124 3121 3118 3116 3114 3113 3111 3107 3103 3100
3107 3108 3108 3108 3109 3109 3109 3110 3111 3111 3112 3113 3114 3114 3115 3116 3117 3118 3119 3120 3121 3121 3122 3121 3121 3120 3121 3121 3121 3120 3120 3119 3118 3117 3114 3112 3110 3107 3105 3103 3099 3096 3093
3103 3104 3104 3105 3106 3106 3106 3106 3107 3107 3107 3108 3108 3109 3110 3110 3111 3113 3113 3114 3114 3115 3116 3115 3115 3115 3115 3115 3115 3114 3113 3113 3112 3109 3107 3105 3103 3101 3098 3095 3092 3089 3085
3097 3098 3098 3099 3100 3100 3101 3101 3101 3101 3101 3102 3102 3103 3104 3105 3105 3105 3106 3107 3108 3109 3110 3110 3109 3109 3109 3109 3108 3108 3107 3106 3106 3104 3101 3099 3097 3095 3091 3087 3084 3081 3079